Hourly Weather Chalatenango

Today, 14 June, Monday

Time Temperature Precipitation Wind Pressure Humidity
00:00 +22°C° 0 mm 0 mps 718 mmHg 96%
01:00 +23°C° 0.5 mm 1 mps 718 mmHg 96%
02:00 +23°C° 0.5 mm 1 mps 718 mmHg 96%
03:00 +23°C° 0.5 mm 1 mps 718 mmHg 96%
04:00 +23°C° 0.4 mm 1 mps 718 mmHg 97%
05:00 +21°C° 0.4 mm 0 mps 718 mmHg 97%
06:00 +21°C° 0 mm 0 mps 718 mmHg 96%
07:00 +22°C° 0 mm 0 mps 719 mmHg 94%
08:00 +23°C° 0 mm 0 mps 719 mmHg 92%
09:00 +23°C° 0 mm 0 mps 719 mmHg 89%
10:00 +24°C° 0.4 mm 0 mps 719 mmHg 87%
11:00 +27°C° 0.4 mm 1 mps 719 mmHg 84%
12:00 +28°C° 0.4 mm 1 mps 719 mmHg 82%
13:00 +27°C° 0.8 mm 1 mps 718 mmHg 83%
14:00 +27°C° 0.8 mm 1 mps 718 mmHg 85%
15:00 +27°C° 0.8 mm 1 mps 717 mmHg 86%
16:00 +26°C° 1.6 mm 1 mps 717 mmHg 89%
17:00 +25°C° 1.6 mm 1 mps 718 mmHg 92%
18:00 +24°C° 1.6 mm 1 mps 718 mmHg 95%
19:00 +24°C° 0.3 mm 1 mps 718 mmHg 96%
20:00 +22°C° 0.3 mm 0 mps 718 mmHg 96%
21:00 +22°C° 0.3 mm 0 mps 719 mmHg 97%
22:00 +21°C° 0 mm 0 mps 719 mmHg 97%
23:00 +21°C° 0 mm 0 mps 719 mmHg 97%

Tomorrow, 15 June, Tuesday

Time Temperature Precipitation Wind Pressure Humidity
00:00 +21°C° 0 mm 0 mps 718 mmHg 97%
01:00 +21°C° 0.1 mm 0 mps 718 mmHg 97%
02:00 +21°C° 0.1 mm 0 mps 718 mmHg 97%
03:00 +20°C° 0.1 mm 0 mps 718 mmHg 97%
04:00 +20°C° 0.4 mm 0 mps 718 mmHg 97%
05:00 +21°C° 0.4 mm 0 mps 718 mmHg 97%
06:00 +21°C° 0.4 mm 0 mps 719 mmHg 97%
07:00 +22°C° 0.1 mm 0 mps 719 mmHg 93%
08:00 +23°C° 0.1 mm 0 mps 719 mmHg 90%
09:00 +24°C° 0.1 mm 0 mps 720 mmHg 86%
10:00 +27°C° 0.6 mm 1 mps 719 mmHg 84%
11:00 +28°C° 0.6 mm 1 mps 719 mmHg 81%
12:00 +29°C° 0.6 mm 1 mps 719 mmHg 78%
13:00 +28°C° 1.4 mm 1 mps 718 mmHg 82%
14:00 +28°C° 1.4 mm 1 mps 718 mmHg 85%
15:00 +27°C° 1.4 mm 1 mps 717 mmHg 88%
16:00 +26°C° 1 mm 1 mps 717 mmHg 90%
17:00 +24°C° 1 mm 0 mps 717 mmHg 92%
18:00 +23°C° 1 mm 0 mps 717 mmHg 94%
19:00 +22°C° 0.7 mm 0 mps 718 mmHg 94%
20:00 +22°C° 0.7 mm 0 mps 718 mmHg 95%
21:00 +21°C° 0.7 mm 0 mps 719 mmHg 96%
22:00 +21°C° 0.2 mm 0 mps 718 mmHg 97%
23:00 +21°C° 0.2 mm 0 mps 718 mmHg 97%

Day after tomorrow, 16 June, Wednesday

Time Temperature Precipitation Wind Pressure Humidity
00:00 +21°C° 0.2 mm 0 mps 718 mmHg 97%
01:00 +21°C° 0.3 mm 0 mps 718 mmHg 97%
02:00 +21°C° 0.3 mm 0 mps 718 mmHg 97%
03:00 +21°C° 0.3 mm 0 mps 717 mmHg 98%
04:00 +21°C° 0.2 mm 0 mps 717 mmHg 97%
05:00 +21°C° 0.2 mm 0 mps 718 mmHg 97%
06:00 +21°C° 0.2 mm 0 mps 718 mmHg 97%
07:00 +21°C° 0.2 mm 0 mps 718 mmHg 96%
08:00 +22°C° 0.2 mm 0 mps 719 mmHg 95%
09:00 +23°C° 0.2 mm 0 mps 719 mmHg 93%
10:00 +23°C° 0.6 mm 0 mps 719 mmHg 93%
11:00 +23°C° 0.6 mm 0 mps 718 mmHg 92%
12:00 +24°C° 0.6 mm 0 mps 718 mmHg 91%
13:00 +24°C° 1.2 mm 0 mps 718 mmHg 92%
14:00 +23°C° 1.2 mm 0 mps 717 mmHg 93%
15:00 +23°C° 1.2 mm 0 mps 717 mmHg 94%
16:00 +23°C° 0.6 mm 0 mps 717 mmHg 94%
17:00 +22°C° 0.6 mm 0 mps 717 mmHg 95%
18:00 +22°C° 0.6 mm 0 mps 717 mmHg 96%
19:00 +22°C° 0 mm 0 mps 718 mmHg 96%
20:00 +21°C° 0 mm 0 mps 718 mmHg 97%
21:00 +21°C° 0 mm 0 mps 719 mmHg 97%
22:00 +21°C° 0 mm 0 mps 718 mmHg 97%
23:00 +20°C° 0 mm 0 mps 718 mmHg 97%

17 June, Thursday

Time Temperature Precipitation Wind Pressure Humidity
00:00 +20°C° 0 mm 0 mps 718 mmHg 97%
01:00 +20°C° 0 mm 0 mps 718 mmHg 97%
02:00 +20°C° 0 mm 0 mps 718 mmHg 97%
03:00 +20°C° 0 mm 0 mps 717 mmHg 98%
04:00 +20°C° 0 mm 0 mps 717 mmHg 97%
05:00 +20°C° 0 mm 0 mps 717 mmHg 97%
06:00 +20°C° 0 mm 0 mps 718 mmHg 97%
07:00 +22°C° 0 mm 0 mps 718 mmHg 92%
08:00 +23°C° 0 mm 0 mps 718 mmHg 88%
09:00 +24°C° 0 mm 0 mps 719 mmHg 83%
10:00 +26°C° 0 mm 0 mps 718 mmHg 77%
11:00 +29°C° 0 mm 1 mps 718 mmHg 72%
12:00 +30°C° 0 mm 1 mps 718 mmHg 67%
13:00 +30°C° 0.3 mm 1 mps 717 mmHg 68%
14:00 +30°C° 0.3 mm 1 mps 717 mmHg 70%
15:00 +30°C° 0.3 mm 1 mps 716 mmHg 72%
16:00 +28°C° 0.7 mm 1 mps 716 mmHg 79%
17:00 +27°C° 0.7 mm 1 mps 717 mmHg 86%
18:00 +25°C° 0.7 mm 1 mps 717 mmHg 92%
19:00 +23°C° 0.1 mm 0 mps 717 mmHg 94%
20:00 +22°C° 0.1 mm 0 mps 718 mmHg 95%
21:00 +21°C° 0.1 mm 0 mps 718 mmHg 97%
22:00 +21°C° 0 mm 0 mps 718 mmHg 97%
23:00 +21°C° 0 mm 0 mps 718 mmHg 97%

18 June, Friday

Time Temperature Precipitation Wind Pressure Humidity
00:00 +21°C° 0 mm 0 mps 718 mmHg 97%
01:00 +21°C° 0 mm 0 mps 718 mmHg 97%
02:00 +21°C° 0 mm 0 mps 718 mmHg 97%
03:00 +21°C° 0 mm 0 mps 717 mmHg 98%
04:00 +21°C° 0 mm 0 mps 718 mmHg 97%
05:00 +20°C° 0 mm 0 mps 718 mmHg 97%
06:00 +20°C° 0 mm 0 mps 718 mmHg 97%
07:00 +22°C° 0 mm 0 mps 718 mmHg 91%
08:00 +24°C° 0 mm 0 mps 719 mmHg 84%
09:00 +26°C° 0 mm 0 mps 719 mmHg 77%
10:00 +29°C° 0 mm 1 mps 719 mmHg 72%
11:00 +30°C° 0 mm 1 mps 719 mmHg 66%
12:00 +31°C° 0 mm 1 mps 718 mmHg 61%
13:00 +31°C° 0.4 mm 1 mps 718 mmHg 65%
14:00 +31°C° 0.4 mm 2 mps 717 mmHg 69%
15:00 +30°C° 0.4 mm 2 mps 717 mmHg 73%
16:00 +29°C° 1.1 mm 2 mps 717 mmHg 79%
17:00 +27°C° 1.1 mm 1 mps 717 mmHg 86%
18:00 +25°C° 1.1 mm 1 mps 717 mmHg 93%
19:00 +23°C° 0.7 mm 0 mps 718 mmHg 94%
20:00 +22°C° 0.6 mm 0 mps 718 mmHg 95%
21:00 +22°C° 0.6 mm 0 mps 719 mmHg 96%
22:00 +22°C° 0.7 mm 0 mps 719 mmHg 96%
23:00 +21°C° 0.7 mm 0 mps 719 mmHg 96%

19 June, Saturday

Time Temperature Precipitation Wind Pressure Humidity
00:00 +21°C° 0.7 mm 0 mps 719 mmHg 97%
01:00 +21°C° 0.5 mm 0 mps 718 mmHg 97%
02:00 +21°C° 0.5 mm 0 mps 718 mmHg 97%
03:00 +20°C° 0.5 mm 0 mps 718 mmHg 97%
04:00 +21°C° 0 mm 0 mps 718 mmHg 97%
05:00 +21°C° 0 mm 0 mps 719 mmHg 97%
06:00 +21°C° 0 mm 0 mps 719 mmHg 97%
07:00 +22°C° 0 mm 0 mps 719 mmHg 91%
08:00 +24°C° 0 mm 0 mps 720 mmHg 85%
09:00 +26°C° 0 mm 0 mps 720 mmHg 79%
10:00 +27°C° 0.1 mm 0 mps 720 mmHg 74%
11:00 +30°C° 0.1 mm 1 mps 719 mmHg 70%
12:00 +31°C° 0.1 mm 1 mps 719 mmHg 65%
13:00 +31°C° 0.4 mm 1 mps 719 mmHg 67%
14:00 +31°C° 0.4 mm 1 mps 718 mmHg 69%
15:00 +30°C° 0.4 mm 2 mps 718 mmHg 71%
16:00 +29°C° 1 mm 1 mps 718 mmHg 78%
17:00 +28°C° 1 mm 1 mps 718 mmHg 85%
18:00 +26°C° 1 mm 1 mps 718 mmHg 92%
19:00 +24°C° 1.3 mm 0 mps 719 mmHg 93%
20:00 +23°C° 1.3 mm 0 mps 719 mmHg 95%
21:00 +22°C° 1.3 mm 0 mps 719 mmHg 97%
22:00 +22°C° 2.1 mm 0 mps 719 mmHg 97%
23:00 +22°C° 2.1 mm 0 mps 719 mmHg 97%
Show more

We Need Your Consent

Meteoprog and our Service Providers may store and access personal data such as cookies, device identifiers or other similar technologies on your device and process such data to personalise content and ads, as well as provide social media features and to analyse the traffic.

  • Store and/or access information on your device

    Cookies, device identifiers or other information can be stored or accessed on your device for the purposes indicated above.

  • Personalised ads and content, ad and content measurement, audience insights, and products development

    Ads and content can be personalised based on a profile. More data can be added to better personalise ads and content. Ad and content performance can be measured. Insights about the audience who saw the ads and content can be derived. Such data can be used to develop or improve user’s experience, systems and software.

By clicking ‘I Agree’ you will allow the use of indicated cookies, device identifiers, web beacons or other similar technologies. Your settings can be changed in the browser on your device.

For certain purposes, legitimate interests may be relied on, rather than consent. You can read more about this in our Privacy and Cookie Policy.